Location: La Nouaille
(45.5522°N, 1.9458°E)
Time: 07:11:20
(UTC+00:00)

Daily predictions for brighter satellites

Satellite Brightness Start Highest point End
(mag) Time Altitude Azimuth Time Altitude Azimuth Time Altitude Azimuth
Cosmos 1346 Rocket 4.4 19:39:45 10° SW 19:43:30 40° WNW 19:47:19 10° N
Cosmos 1900 4.4 19:39:15 10° SSW 19:44:04 60° ESE 19:49:02 10° NE
MONITOR-E 3.4 19:45:17 10° SSE 19:47:38 71° ENE 19:50:02 10° N
USA 267 3.5 19:43:10 10° ENE 19:49:31 50° SE 19:55:49 10° SSW
Cosmos 1821 Rocket 4.4 19:45:59 10° SSE 19:51:38 41° E 19:57:24 10° NNE
COSMOS 2406 3.4 19:47:44 10° S 19:53:16 50° ESE 19:58:48 10° NE
Shenzhou-11 Module 1.9 19:51:12 10° WSW 19:53:28 41° S 19:55:30 12° ESE
Cosmos 1743 Rocket 3.6 19:50:12 10° S 19:54:38 88° W 19:59:09 10° N
Cosmos 2366 rocket 4.2 19:49:12 10° S 19:55:28 80° W 20:01:42 10° N
SL-16 R/B 4.5 19:55:20 10° NNE 19:56:52 11° NE 19:58:24 10° NE
CZ-2C R/B 3.9 19:52:30 10° NNE 19:57:03 54° E 20:01:29 10° S
Intercosmos 25 4.0 19:54:04 10° N 19:58:19 38° ENE 20:01:26 11° SE
Lacrosse 5 3.8 19:55:26 10° NW 19:59:30 23° N 20:03:33 10° ENE
Cosmos 1862 3.4 19:58:56 10° S 20:02:54 59° E 20:06:55 10° NNE
Cosmos 2369 4.4 19:57:39 10° NNW 20:03:08 42° NE 20:08:05 12° SE
Sich 1 3.6 19:59:44 10° SSE 20:03:51 40° E 20:08:01 10° NNE
SJ-6B 3.9 20:01:25 10° S 20:05:22 48° W 20:09:17 10° NNW
BREEZE-M DEB (TANK) 3.1 20:03:28 10° W 20:07:20 45° NNW 20:09:19 10° ENE
Meteor 2-6 Rocket 4.2 20:02:02 10° N 20:07:33 88° E 20:13:12 10° S
Cosmos 1818 3.8 20:02:15 10° NNW 20:07:40 59° NE 20:12:24 13° SE
IRIDIUM 106 4.3 20:02:38 10° S 20:07:47 66° E 20:12:57 10° N
Cosmos 2082 Rocket 3.1 20:03:49 10° SSE 20:08:34 28° ESE 20:13:18 10° NE
Cosmos 1500 Rocket 4.2 20:09:50 10° SSW 20:14:04 57° WNW 20:18:21 10° N
Spot 2 Rocket 4.2 20:11:25 13° SE 20:15:29 37° ENE 20:20:10 10° N
Ariane Rocket 4.5 20:13:02 10° SSW 20:17:40 36° W 20:22:20 10° NNW
Resurs 1-3 3.9 20:14:42 10° S 20:19:04 71° WSW 20:23:28 10° NNW
USA 186 4.4 20:18:36 10° WSW 20:19:07 10° W 20:19:38 10° W
Cosmos 2322 Rocket 4.4 20:17:03 10° N 20:19:33 13° NE 20:22:03 10° ENE
Meteor 1-4 Rocket 3.6 20:17:45 10° NNE 20:20:47 27° ENE 20:22:27 19° ESE
Cosmos 1190 Rocket 4.4 20:16:25 10° S 20:21:20 42° ESE 20:26:20 10° NE
Cosmos 1184 Rocket 4.5 20:21:01 16° ESE 20:21:31 17° E 20:23:44 10° NE
Terra 3.7 20:21:08 11° E 20:23:44 16° ENE 20:26:36 10° NNE
Cosmos 407 Rocket 3.6 20:19:03 10° S 20:24:14 55° ESE 20:29:25 10° NNE
CZ-2C R/B 3.4 20:19:43 10° N 20:24:46 55° WNW 20:29:50 10° SSW
USA 234 3.6 20:18:46 11° ESE 20:24:52 59° NNE 20:31:16 10° NW
SL-8 R/B 4.1 20:20:42 10° WNW 20:25:25 55° SSW 20:28:49 18° SE
Cosmos 1666 Rocket 3.9 20:21:27 11° SSE 20:25:26 44° E 20:29:34 10° NNE
Cosmos 1238 Rocket 4.4 20:28:02 12° ENE 20:28:02 12° ENE 20:28:45 10° ENE
MetOp-B 4.2 20:25:44 14° SSE 20:30:22 67° ENE 20:35:42 10° N
Meteor 1-27 Rocket 3.8 20:25:45 10° N 20:31:40 73° ENE 20:36:53 14° SSE
Meteor 1-10 Rocket 4.5 20:26:32 10° NNW 20:32:11 72° W 20:37:54 10° S
USA 238 DEB 4.3 20:31:18 10° S 20:36:59 32° ESE 20:42:50 10° NE
USA 238 4.3 20:31:27 10° S 20:37:05 31° ESE 20:42:56 10° NE
Cosmos 1805 Rocket 3.9 20:32:46 10° SSW 20:37:10 68° W 20:41:37 10° N
BREEZE-M DEB (TANK) 3.5 20:33:03 10° WNW 20:37:19 25° SW 20:39:00 15° S
SPOT 5 3.9 20:35:54 18° ESE 20:37:52 25° ENE 20:41:24 10° N
SPOT 1/Viking Rocket 3.8 20:39:53 21° SE 20:43:16 54° ENE 20:48:23 10° N
Cosmos 1980 Rocket 2.6 20:38:07 10° NNW 20:43:40 52° ENE 20:47:05 23° SE
SL-4 R/B 1.7 20:42:58 10° SW 20:46:55 63° SSE 20:50:34 10° ENE
BREEZE-M DEB (TANK) 2.9 20:45:34 10° W 20:48:10 57° N 20:54:31 10° ENE
Genesis I 4.0 20:45:22 10° NNW 20:49:03 40° NE 20:50:44 26° E
Cosmos 405 Rocket 4.1 20:49:22 21° E 20:49:22 21° E 20:52:06 10° NE
Cosmos 1140 Rocket 3.4 20:44:40 10° S 20:49:52 72° ESE 20:55:08 10° NNE
ATLAS 5 CENTAUR R/B 3.2 20:46:34 10° NW 20:52:08 46° WSW 20:57:17 15° S
Cosmos 1023 Rocket 4.4 20:49:07 10° SSW 20:54:23 80° ESE 20:59:42 10° NNE
Cosmos 389 Rocket 4.2 20:52:05 10° NNW 20:55:07 29° W 20:58:10 10° SSW
USA 32 4.2 20:53:02 22° SSE 20:56:11 54° E 21:01:17 10° NNE
Cosmos 1812 4.1 20:54:41 10° NNW 20:58:13 36° W 21:01:40 10° SSW
Cosmos 1633 Rocket 3.0 20:55:05 15° S 20:58:40 84° E 21:03:08 10° N
Cosmos 1833 Rocket 2.9 20:53:25 10° SSW 20:59:01 74° WNW 21:04:40 10° NNE
Cosmos 1697 Rocket 2.8 20:53:49 10° NNW 20:59:25 70° WSW 21:03:04 22° S
Cosmos 1867 3.5 21:00:03 10° SSW 21:05:22 61° ESE 21:10:45 10° NE
CENTAUR R/B 3.2 21:04:46 27° SE 21:05:38 28° ESE 21:11:08 10° NE
Okean 1-7 4.3 21:04:07 10° NNE 21:07:46 25° ENE 21:08:30 24° E
Resurs 01 Rocket 3.1 21:05:15 10° SSW 21:09:12 32° W 21:13:12 10° NNW
Cosmos 1707 Rocket 4.4 21:05:38 10° NNW 21:09:49 47° W 21:12:53 17° SSW
Landsat 7 4.0 21:08:59 24° S 21:11:49 70° WSW 21:16:36 10° NNW
FALCON 9 DEB 3.0 21:09:07 10° SW 21:12:36 77° SSE 21:15:22 16° ENE
deb Kosmos-1763 4.0 21:14:16 25° SSW 21:16:16 82° WNW 21:19:56 10° NNE
Cosmos 676 Rocket 3.9 21:14:02 13° SSW 21:18:46 80° ESE 21:24:08 10° NNE
IGS 5A 4.1 21:17:35 26° SSW 21:19:40 52° W 21:23:44 10° NNW
Meteor 1-25 Rocket 4.1 21:17:52 26° S 21:21:06 73° E 21:26:42 10° NNE
Cosmos 192 4.2 21:16:14 10° NNW 21:21:10 84° ENE 21:22:57 40° SSE
ATLAS 5 CENTAUR R/B 3.9 21:19:06 10° N 21:21:12 18° NE 21:23:25 14° E
Cosmos 1470 Rocket 3.4 21:19:31 34° S 21:21:24 81° E 21:25:49 10° N
Cosmos 1934 Rocket 4.3 21:17:03 10° SSW 21:23:23 69° W 21:29:46 10° N
Aureole 1 Rocket 4.4 21:17:50 10° SSW 21:24:31 86° WNW 21:32:48 10° NNE
GP-B 3.6 21:23:50 10° N 21:28:12 58° W 21:30:41 24° SSW
NOSS 3-2 (A) 3.2 21:25:46 10° SSW 21:31:21 70° ESE 21:37:46 10° NE
USA 267 3.8 21:26:12 10° NE 21:32:37 61° NNW 21:39:02 10° WSW
Cosmos 921 Rocket 2.8 21:29:54 10° NNW 21:34:09 83° ENE 21:34:50 61° SSE
Cosmos 1862 Rocket 4.2 21:32:03 10° NNW 21:36:25 52° W 21:38:11 32° SSW
NOSS 3-2 (C) 3.5 21:35:51 39° SSE 21:37:21 48° ESE 21:43:26 10° NE
ERS-1 Rocket 3.0 21:36:08 39° S 21:38:02 75° WSW 21:43:05 10° NNW
SAR-Lupe-2 3.6 21:37:59 10° N 21:41:34 75° WNW 21:41:55 66° SW
SL-16 R/B 2.8 21:37:02 10° NNW 21:42:31 46° ENE 21:44:17 35° ESE
Lacrosse 5 2.6 21:38:35 10° NW 21:43:30 47° NNE 21:45:31 31° E
Cosmos 468 Rocket 4.1 21:39:08 10° NNW 21:44:27 68° ENE 21:45:45 49° SE
Cosmos 1741 Rocket 4.1 21:48:23 52° SE 21:48:59 55° ESE 21:54:08 10° NNE
Cosmos 2082 Rocket 3.1 21:46:51 10° SW 21:52:23 49° WNW 21:57:53 10° NNE
CARTOSAT-1 4.4 21:57:12 36° SW 21:58:12 42° W 22:02:20 10° NNW
Terra 1.9 22:00:02 55° SSW 22:00:55 70° WSW 22:05:41 10° NNW
Cosmos 1933 Rocket 4.2 22:01:23 38° SW 22:02:41 53° WNW 22:07:02 10° N
Cosmos 2322 Rocket 2.5 21:59:19 10° NNW 22:04:57 56° ENE 22:06:13 46° ESE
Cosmos 1238 Rocket 4.1 22:06:54 25° WNW 22:06:54 25° WNW 22:09:23 10° NNW
Okean 1 3.9 22:02:57 10° NNW 22:06:52 49° W 22:07:06 48° WSW
Cosmos 2100 Rocket 3.9 22:05:35 51° SSE 22:07:08 71° E 22:13:15 10° NNE
USA 234 3.5 22:06:06 41° S 22:07:56 53° SW 22:14:19 10° WNW
Meteor 1-11 Rocket 4.3 22:09:09 38° E 22:09:14 38° E 22:14:29 10° NNE
Cosmos 1437 Rocket 3.1 22:07:27 10° NNW 22:10:50 60° WNW 22:10:50 60° WNW
Cosmos 1869 Rocket 3.5 22:13:01 75° ENE 22:13:01 75° ENE 22:17:15 10° NNE
SPOT 5 3.7 22:15:08 31° WSW 22:15:49 33° W 22:19:47 10° NNW
Cosmos 2360 Rocket 3.0 22:13:43 10° NNW 22:19:04 41° NE 22:20:19 36° E
ATLAS 3B R/B 3.2 22:21:12 36° E 22:21:12 36° E 22:26:25 10° NE
Geosat 4.0 22:20:48 63° E 22:21:20 69° ENE 22:26:22 10° NNW
Iridium 4 Rocket 3.1 22:21:45 77° NNE 22:21:45 77° NNE 22:25:42 10° N
Cosmos 2173 Rocket 3.8 22:21:11 55° S 22:22:41 86° E 22:28:50 10° N
Cosmos 1703 Rocket 4.2 22:19:54 10° NNW 22:24:04 45° W 22:24:15 45° W
Cosmos 1500 4.0 22:25:10 48° N 22:25:10 48° N 22:27:57 10° N
Cosmos 405 Rocket 4.4 22:24:28 25° W 22:25:06 26° WNW 22:28:18 10° NNW
SL-4 R/B 3.1 22:23:04 10° W 22:26:38 38° NNW 22:27:13 36° N
Cosmos 1980 Rocket 3.6 22:22:43 10° NW 22:27:19 26° WSW 22:28:51 23° SW
ALOS 2 4.0 22:27:44 27° ENE 22:27:44 27° ENE 22:31:13 10° N
USA 238 DEB 4.1 22:20:56 10° SW 22:27:30 61° NW 22:34:23 10° NE
USA 238 4.1 22:21:03 10° SW 22:27:36 61° NW 22:34:29 10° NE
Cosmos 1725 Rocket 4.1 22:27:19 51° ESE 22:28:02 54° E 22:34:11 10° NNE
Cosmos 1763 Rocket 3.7 22:25:25 10° NNW 22:30:39 58° WSW 22:31:09 55° SW
SL-08 R/B 4.4 22:32:18 57° ESE 22:32:52 60° E 22:38:51 10° NNE
Cosmos 1536 4.3 22:34:39 30° NE 22:34:39 30° NE 22:37:00 10° NNE
Cosmos 1666 4.2 22:37:32 30° NNE 22:37:32 30° NNE 22:39:38 10° NNE
Cosmos 2333 Rocket 3.7 22:34:29 10° N 22:39:23 27° NE 22:41:19 23° E
Cosmos 2016 Rocket 3.9 22:39:51 64° SSE 22:40:54 81° E 22:47:18 10° N
Meteor 1-5 Rocket 4.3 22:40:38 60° SSW 22:41:46 80° W 22:47:45 10° N
Cosmos 2061 Rocket 3.8 22:41:22 66° SSE 22:42:18 82° E 22:48:31 10° N
Lacrosse 4 Rocket 3.9 22:45:23 12° ENE 22:45:23 12° ENE 22:45:53 10° NE
Meteor 1-13 Rocket 4.0 22:37:29 10° N 22:43:03 90° ENE 22:43:23 80° S
Cosmos 1459 Rocket 4.2 22:42:36 47° SW 22:44:21 68° W 22:50:42 10° N
Okean 1-7 4.4 22:41:33 10° NNW 22:45:19 30° W 22:45:20 30° W
MOS 1-B Rocket 3.7 22:40:17 10° NNE 22:46:01 87° WNW 22:46:44 69° SSW
Cosmos 2221 Rocket 3.9 22:42:37 10° N 22:46:29 66° NNW 22:46:29 66° NNW
Cosmos 1733 Rocket 3.9 22:50:59 44° NE 22:50:59 44° NE 22:54:13 10° NNE
Okean 3 4.1 22:46:59 10° NNW 22:50:30 53° NW 22:50:30 53° NW
Cosmos 1066 Rocket 4.2 22:47:50 10° N 22:53:34 65° ENE 22:53:46 65° E
Cosmos 1864 Rocket 4.3 22:53:22 71° S 22:54:06 86° E 23:00:23 10° N
Meteor 1-23 Rocket 4.3 22:49:34 10° N 22:55:23 65° ENE 22:55:43 64° E
CENTAUR R/B 2.9 22:51:50 24° WSW 22:55:39 63° NW 23:02:46 10° NE
Thor Agena Rocket 3.4 22:52:08 10° NNE 22:57:00 81° NE 22:57:00 81° NE
Cosmos 1802 Rocket 4.3 22:58:40 49° SW 23:00:16 63° WNW 23:06:36 10° N
Meteor 2-4 Rocket 4.5 22:54:59 10° NNW 23:00:16 41° W 23:00:58 39° WSW
Cosmos 967 Rocket 4.3 22:53:59 10° NW 23:00:24 88° WSW 23:01:03 74° SSE
Cosmos 44 3.5 22:57:12 10° NW 23:01:33 67° WNW 23:01:33 67° WNW
Spot 4 4.1 23:06:33 61° WNW 23:06:33 61° WNW 23:10:51 10° NNW
Cosmos 2233 Rocket 3.8 23:14:31 74° SE 23:14:59 79° E 23:21:20 10° N
Cosmos 841 Rocket 4.4 23:17:45 10° NW 23:22:05 37° W 23:22:05 37° W
Cosmos 540 Rocket 4.4 23:18:58 10° NW 23:23:10 37° W 23:23:10 37° W
SL-16 R/B 3.4 23:21:34 10° NW 23:26:08 29° W 23:26:08 29° W
Lacrosse 5 3.2 23:21:40 10° WNW 23:24:41 31° W 23:24:41 31° W
Cosmos 1833 4.1 23:28:44 84° NNW 23:28:44 84° NNW 23:34:19 10° NNE
Cosmos 2322 3.7 23:23:48 10° NNW 23:29:30 74° ENE 23:29:31 74° ENE
Cosmos 1378 Rocket 4.4 23:25:28 10° N 23:28:49 50° NNW 23:28:49 50° NNW
Cosmos 2219 Rocket 2.4 23:32:23 10° NNW 23:38:01 61° ENE 23:38:19 60° ENE
Tsikada Rocket 4.4 23:33:04 10° NNW 23:39:11 51° W 23:39:45 50° WSW
Cosmos 1975 Rocket 4.2 23:39:01 10° N 23:42:25 38° NE 23:42:25 38° NE
Cosmos 2333 4.2 23:38:05 10° NNW 23:43:44 84° NW 23:43:44 84° NW
Helios 1A 4.1 23:49:48 43° N 23:49:48 43° N 23:52:45 10° N
Cosmos 2322 Rocket 3.7 23:44:06 10° NW 23:48:01 24° W 23:48:01 24° W
Cosmos 1486 Rocket 4.1 23:52:11 70° NNW 23:52:11 70° NNW 23:56:56 10° NNE
